Location: Antioch Baptist Church
(32.6696°N, 85.7327°W)
Time: 21:02:53
(UTC+00:00)

COSMOS 2428 - Pass Details

Date: 14 July 2020
Orbit: 844 x 859 km, 70.9° (Epoch: 13 August)

Event Time Altitude Azimuth Distance (km) Brightness Sun altitude
Rises 01:20:53 0° 197° (SSW) 3,385 5.7 -6.1°
Reaches altitude 10° 01:23:19 10° 196° (SSW) 2,453 5.0 -6.6°
Maximum altitude 01:28:57 84° 110° (ESE) 852 2.7 -7.6°
Drops below altitude 10° 01:34:38 10° 22° (NNE) 2,469 5.3 -8.6°
Sets 01:37:05 0° 22° (NNE) 3,409 6.0 -9.0°
